Home > Weather > Tychy > Past weeks

Flag for Poland Weather for the Past 2 Weeks in Tychy, Poland

Now
52 °F

Passing clouds.


Feels Like: 47 °F
Forecast: 36 / 48 °F
Wind: 16 mph from South

Location: Katowice Airport

Current Time: Feb 9, 2016 at 9:47:40 PM

Latest Report: Feb 9, 2016 at 9:00 PM


Visibility: N/A

Pressure: 29.36 "Hg

Humidity: 58%

Dew point: 37 °F

Location of TychyLocation

Historic Weather in Tychy — Graph

°F

Tychy Temperature Yesterday

Maximum temperature yesterday: 50 °F (at 1:30 PM)
Minimum temperature yesterday: 41 °F (at 1:00 AM)
Average temperature yesterday: 46 °F

High & Low Weather Summary for the Past Weeks

 TemperatureHumidityPressure
High54 °F (Jan 30, 2:00 PM)100% (Jan 25, 8:00 PM)30.30 "Hg (Jan 25, 8:00 PM)
Low28 °F (Jan 29, 12:30 AM)44% (Jan 30, 2:30 PM)29.39 "Hg (Feb 9, 8:00 PM)
Average41 °F79%29.98 "Hg
* Reported Jan 25 8:00 PM — Feb 9 8:30 PM, Tychy, Weather by CustomWeather, © 2016

Note: Actual official high and low records may vary slightly from our data, if they occured in-between our weather recording intervals... More about our weather records

Advertising

Tychy Weather History for the Previous 24 Hours

 ConditionsComfort  
Time TempWeatherWind HumidityBarometerVisibility
8:30 PM
Tue, Feb 9
50 °FPassing clouds.9 mph58%29.39 "HgN/A
8:00 PM48 °FClear.10 mph62%29.39 "Hg10 mi
7:30 PM50 °FClear.16 mph58%29.42 "Hg10 mi
7:00 PM50 °FPassing clouds.18 mph58%29.45 "HgN/A
6:30 PM50 °FPassing clouds.16 mph58%29.45 "HgN/A
6:00 PM50 °FClear.13 mph58%29.45 "Hg10 mi
5:30 PM50 °FClear.8 mph58%29.47 "Hg10 mi
5:00 PM50 °FClear.9 mph58%29.47 "Hg10 mi
4:00 PM52 °FPassing clouds.13 mph50%29.53 "HgN/A
3:30 PM52 °FSunny.16 mph50%29.53 "Hg10 mi
3:00 PM52 °FSunny.20 mph50%29.56 "Hg10 mi
2:30 PM52 °FSunny.23 mph47%29.56 "Hg10 mi
2:00 PM52 °FPassing clouds.21 mph50%29.59 "HgN/A
1:30 PM54 °FPassing clouds.23 mph44%29.59 "HgN/A
1:00 PM52 °FPassing clouds.26 mph47%29.62 "HgN/A
12:30 PM50 °FPassing clouds.26 mph54%29.65 "HgN/A
11:30 AM48 °FScattered clouds.25 mph58%29.65 "HgN/A
11:00 AM48 °FPassing clouds.21 mph62%29.68 "HgN/A
10:30 AM46 °FPassing clouds.23 mph66%29.68 "HgN/A
10:00 AM46 °FScattered clouds.23 mph62%29.68 "HgN/A
9:00 AM46 °FPartly sunny.22 mph62%29.68 "HgN/A
8:30 AM45 °FPassing clouds.22 mph66%29.68 "HgN/A
8:00 AM45 °FOvercast.21 mph66%29.68 "HgN/A
7:00 AM43 °FClear.16 mph71%29.68 "Hg10 mi
6:30 AM43 °FPassing clouds.21 mph71%29.68 "HgN/A
6:00 AM43 °FClear.23 mph66%29.65 "Hg10 mi
5:30 AM45 °FClear.21 mph66%29.65 "Hg10 mi
5:00 AM45 °FClear.23 mph66%29.65 "Hg10 mi
4:30 AM45 °FClear.21 mph66%29.65 "Hg10 mi
4:00 AM45 °FClear.18 mph71%29.65 "Hg10 mi
3:30 AM45 °FClear.21 mph71%29.65 "Hg10 mi
3:00 AM45 °FPassing clouds.21 mph76%29.65 "HgN/A
2:30 AM45 °FClear.13 mph81%29.62 "Hg10 mi
2:00 AM45 °FPassing clouds.16 mph87%29.65 "HgN/A
1:30 AM46 °FSprinkles. Passing clouds.15 mph82%29.62 "HgN/A
1:00 AM46 °FSprinkles. Partly cloudy.22 mph82%29.65 "Hg4 mi
12:30 AM48 °FPassing clouds.15 mph76%29.65 "HgN/A
12:00 AM48 °FPassing clouds.15 mph76%29.65 "HgN/A
11:00 PM
Mon, Feb 8
48 °FClear.12 mph71%29.62 "Hg10 mi
10:30 PM48 °FClear.9 mph71%29.62 "Hg10 mi
10:00 PM48 °FClear.12 mph71%29.62 "Hg10 mi
9:30 PM48 °FClear.14 mph71%29.62 "Hg10 mi
9:00 PM48 °FClear.13 mph66%29.62 "Hg10 mi
Weather by CustomWeather, © 2016

See weather overviewHow to use our weather pages